SCP
0 -0 0 -0 -0 -0 0 0 0 0 0 0 0 0 0 0 0 0 0 0 0 0 0 0 0 0 0 0 0 0 0 0 0 0 0 0 0 0 0 0 0 0 0
0 -0 0 0 0 0 -0 0 0 0 0 0 0 0 0 0 0 0 0 -0 -0 -0 -0 0 0 0 0 0 0 0 0 0 0 0 0 0 0 0 0 0 0 0 0
0 0 0 0 0 -0 0 0 0 0 0 0 0 0 0 0 0 0 -0 -0 -0 -0 0 0 0 0 0 0 0 0 0 0 0 0 -0 0 0 0 0 0 0 0 0
0 0 0 0 0 0 0 0 0 0 0 0 0 0 0 0 0 0 0 0 0 -0 0 0 0 0 0 0 0 0 0 0 0 0 0 0 0 0 0 0 0 0 0
0 0 0 0 0 0 -0 -0 0 0 0 0 0 0 0 0 0 0 0 0 0 0 0 0 0 0 0 0 0 0 0 0 0 0 0 0 0 0 0 0 0 0 -0
0 0 0 0 0 0 0 0 0 0 0 0 0 0 0 0 0 0 0 0 0 0 0 0 0 0 0 0 0 0 0 0 -0 0 0 0 0 0 0 0 0 0 0
0 0 0 0 0 0 0 0 0 0 0 0 0 0 0 -0 0 0 -0 -0 0 0 0 0 0 0 0 0 0 0 0 -0 -0 0 0 0 0 0 0 0 0 0 0
0 0 0 0 0 0 0 0 0 0 0 0 0 0 0 0 0 -0 -0 -0 -0 -0 0 0 0 0 0 0 0 0 0 -0 -0 0 0 0 0 0 0 0 0 0 0
0 0 0 0 0 0 0 0 0 0 0 0 0 0 0 0 0 0 -0 -0 -0 -0 0 0 0 0 0 0 0 0 0 -0 0 0 0 0 0 0 0 0 0 0 0
0 0 0 0 0 0 0 0 0 0 0 0 0 0 0 0 0 0 0 0 0 0 0 0 0 0 0 0 0 0 0 -0 0 0 0 0 0 0 0 0 0 0 0
0 0 0 0 0 0 0 0 0 0 0 0 0 0 0 0 0 0 0 0 0 0 0 0 0 0 0 0 0 0 -0 0 0 0 0 0 0 0 0 0 0 0 0
0 0 0 0 0 0 0 0 0 0 0 0 0 0 0 0 0 0 0 0 0 0 0 0 0 0 0 0 0 0 0 0 0 0 0 0 0 0 0 0 0 0 0
0 0 0 0 0 0 0 0 0 0 0 0 0 0 0 0 0 0 0 0 0 0 0 0 0 0 0 0 0 0 0 0 0 0 0 0 0 0 0 0 0 0 0
0 0 0 0 0 0 0 0 0 0 0 0 0 0 0 0 0 0 0 0 0 0 0 0 0 0 0 0 0 0 0 0 0 0 0 0 0 0 0 0 0 0 0
0 0 0 0 0 0 0 0 0 0 0 0 0 0 0 0 0 0 0 0 0 0 0 0 0 0 0 0 0 0 0 0 0 0 0 0 0 0 0 0 0 0 0
0 0 0 0 0 0 0 0 0 0 0 0 0 0 0 0 0 0 0 0 0 0 0 0 0 0 0 0 0 0 0 0 0 0 0 0 0 0 0 0 0 0 0
0 0 0 0 0 0 0 0 0 0 0 0 0 0 0 0 0 0 0 0 0 0 0 0 0 0 0 0 0 0 0 0 0 0 0 0 0 0 0 0 0 0 0
0 0 0 0 0 0 0 1 1 0 0 0 0 0 0 0 0 0 0 0 0 0 0 0 0 0 0 0 0 0 0 0 0 0 0 0 0 0 0 0 0 0 0
0 0 0 0 0 0 0 1 1 1 1 1 0 0 0 0 0 0 0 0 0 0 0 0 0 0 0 0 0 0 0 0 0 0 0 0 0 0 0 0 0 0 0
0 0 0 0 0 0 1 1 1 1 1 1 1 1 0 0 0 0 0 0 0 0 0 0 0 0 0 0 0 0 0 0 0 0 0 0 0 0 0 0 0 0 0
0 0 0 0 0 0 0 2 1 1 1 1 1 1 1 0 0 0 0 0 0 0 0 0 0 0 0 0 0 0 0 0 0 0 0 0 0 0 0 0 0 0 0
0 0 0 0 0 0 0 0 1 1 1 1 1 1 1 1 0 0 0 0 0 0 0 0 0 0 0 0 0 0 0 0 0 0 0 0 0 0 0 0 0 0 0
0 0 0 0 0 0 0 0 0 1 2 2 1 1 1 1 1 1 0 1 1 0 0 0 0 0 0 0 0 0 0 0 0 0 0 0 0 0 0 0 0 0 0
0 0 0 0 0 0 0 0 0 0 1 1 1 1 2 1 1 1 1 1 1 1 0 0 0 0 0 0 0 0 0 0 0 0 0 0 0 0 0 0 0 0 0
0 0 0 0 0 0 0 0 0 0 0 0 0 1 1 1 0 0 0 0 0 0 0 0 0 0 0 0 0 0 0 0 0 0 0 0 0 0 0 0 0 0 0
0 0 0 0 0 0 0 0 0 0 0 0 1 1 1 1 0 0 0 0 0 0 0 0 0 0 0 0 0 0 0 0 0 0 0 0 0 0 0 0 0 0 0
Wind_Speed_500mb
32 36 38 36 33 32 28 25 23 20 16 17 17 14 12 10 9 7 5 5 6 8 11 16 18 15 7 11 11 8 7 4 3 4 6 12 14 13 9 8 13 8 16
38 38 39 35 34 33 29 26 22 22 20 17 14 13 12 10 9 6 2 8 10 17 21 23 19 16 8 7 10 8 6 6 6 6 7 8 9 7 9 11 12 10 12
41 38 38 34 34 34 32 28 26 21 16 11 15 18 14 9 5 5 21 21 19 26 24 24 10 12 10 5 7 8 8 6 3 4 8 14 14 14 15 17 19 18 15
37 37 36 35 37 37 31 27 24 19 13 11 6 13 13 9 11 30 23 19 18 21 32 19 7 8 7 7 11 11 10 9 9 12 14 14 14 20 19 17 16 15 14
35 34 35 37 37 37 35 29 25 18 15 14 8 10 13 13 22 32 27 24 26 37 24 9 3 6 9 17 19 17 15 15 13 15 14 11 14 11 14 12 11 13 9
33 31 33 38 36 34 31 27 23 18 15 15 12 13 16 18 24 31 30 24 25 24 16 7 0 5 14 17 17 15 15 15 16 13 14 13 11 11 7 6 22 17 19
31 29 34 37 34 31 29 26 23 18 16 17 9 12 15 18 22 27 31 28 26 19 13 7 6 12 15 14 12 12 13 13 11 12 14 15 12 10 7 7 6 5 5
28 29 31 35 32 32 29 25 23 22 19 15 14 10 15 16 18 20 26 30 26 20 14 11 14 14 13 11 9 8 9 10 11 10 11 8 6 3 4 5 8 6 3
26 27 28 29 34 32 28 19 22 25 22 21 13 14 15 17 17 17 25 28 25 19 17 16 15 12 9 6 6 7 8 8 8 7 8 4 4 6 8 9 8 8 8
26 27 27 26 28 27 27 26 24 24 24 22 14 19 20 19 19 20 21 22 23 22 20 17 14 10 7 6 7 7 7 6 5 4 6 7 2 5 7 8 7 8 10
26 27 28 27 27 26 24 24 25 28 28 23 20 23 22 19 19 19 22 22 23 22 21 17 13 9 7 6 7 7 5 5 5 5 5 6 5 11 13 13 10 11 11
30 31 29 29 27 28 29 25 24 26 31 28 25 27 24 21 19 20 22 22 23 22 21 18 14 11 8 8 7 5 5 6 5 6 10 9 9 16 15 14 12 11 8
26 30 33 31 30 33 31 27 25 26 27 29 29 29 28 25 24 24 21 25 24 24 19 23 18 15 14 12 11 9 10 10 7 7 14 12 12 17 11 10 8 8 6
31 33 33 33 33 34 33 33 28 30 29 29 32 34 32 30 28 26 25 24 25 24 24 23 20 22 19 15 13 13 13 13 10 8 17 14 18 18 14 10 9 8 6
32 35 36 35 36 39 40 37 35 34 35 35 37 38 36 35 32 30 29 29 28 28 28 27 28 26 23 20 18 17 15 15 15 12 13 16 20 19 17 13 11 9 8
31 33 34 34 37 37 44 45 43 38 35 37 41 43 45 41 39 37 34 33 33 33 31 32 32 31 28 25 23 20 19 19 18 16 13 15 21 20 18 15 13 12 11
29 30 36 37 38 42 42 44 47 43 42 38 44 42 45 47 46 44 40 37 37 36 37 38 39 37 35 31 28 25 23 23 22 21 20 16 19 22 21 19 18 17 15
38 37 35 38 44 48 48 47 46 48 46 46 46 48 47 49 52 48 45 40 38 38 44 45 45 41 39 36 33 30 28 27 26 25 25 25 24 20 25 24 22 20 17
52 50 52 51 47 47 55 58 56 53 53 53 54 52 52 53 55 53 50 45 42 42 49 50 50 47 45 41 37 36 33 32 30 30 29 30 31 29 27 27 27 23 20
47 52 53 55 52 54 49 58 64 63 63 61 61 60 60 58 58 55 56 52 47 50 53 58 56 52 49 45 43 40 38 37 35 35 35 35 36 35 34 33 29 29 25
50 51 52 51 54 52 48 61 68 74 72 71 74 74 70 66 61 60 60 60 58 61 59 63 59 60 57 55 47 45 44 42 41 42 41 40 40 40 39 38 35 34 31
43 50 55 57 56 57 57 52 69 73 79 84 81 78 77 76 73 72 69 66 65 66 64 65 70 70 64 65 57 29 21 37 51 49 49 47 46 45 45 43 42 40 39
15 28 42 55 63 66 65 61 53 54 63 80 84 82 78 76 83 82 80 74 74 71 72 74 76 77 75 71 70 38 20 26 26 44 55 54 52 52 50 50 49 48 46
12 7 9 21 37 54 64 68 64 60 64 71 81 87 88 88 87 84 90 86 81 77 77 79 80 81 80 80 76 76 68 31 19 18 38 49 54 55 55 57 55 54 50
13 12 11 12 14 24 35 52 67 61 57 54 53 59 69 80 89 88 84 86 90 89 82 79 83 87 88 88 84 81 80 80 65 41 20 35 51 58 60 61 60 58 56
15 16 17 17 17 20 22 29 42 58 59 53 52 55 60 66 71 75 79 82 82 91 91 85 84 85 91 91 93 88 87 82 81 74 53 51 45 49 60 62 64 62 61
Wind_Direction_500mb
172 176 160 162 174 173 168 171 170 174 178 196 198 204 218 232 261 276 282 244 201 176 153 138 123 156 172 164 162 190 183 206 302 328 334 351 334 337 0 39 74 80 146
169 168 167 167 169 165 162 170 174 181 181 194 195 210 222 242 269 292 246 154 151 152 149 140 125 85 82 195 194 194 213 244 269 296 343 355 3 43 57 67 84 95 118
162 165 169 170 166 161 167 177 176 184 196 229 226 220 214 219 231 147 137 135 122 137 149 146 113 69 56 103 183 199 215 238 280 37 57 75 66 72 69 75 80 83 103
157 165 167 168 165 162 166 179 179 183 190 169 162 152 174 168 147 138 125 128 135 140 148 144 108 46 31 121 127 132 139 127 113 98 81 85 75 78 74 69 68 72 79
160 164 176 170 172 171 176 185 186 188 181 174 200 140 146 141 146 145 143 143 139 148 152 162 73 30 94 113 116 115 116 112 106 89 87 87 108 74 74 68 70 56 72
164 168 182 178 175 176 171 185 186 189 186 195 195 132 135 141 150 163 160 155 160 160 171 186 323 115 121 118 118 110 111 109 89 89 88 88 71 77 66 80 95 75 65
166 171 180 183 186 179 173 180 191 192 191 186 196 132 139 144 153 171 177 173 169 176 187 194 163 135 124 118 117 115 111 113 112 99 90 89 98 91 124 127 158 175 108
173 172 178 186 180 181 185 181 192 201 195 209 190 153 150 142 148 149 162 169 174 184 191 180 152 137 128 128 135 138 130 122 109 112 101 113 112 178 212 242 252 243 197
179 184 178 187 186 189 192 203 211 210 205 205 190 176 162 150 146 153 160 170 178 184 177 166 155 148 143 143 144 147 143 133 126 131 109 113 174 330 289 284 275 292 286
184 190 186 187 193 199 204 206 211 217 201 187 207 188 173 166 161 158 160 170 171 172 172 174 171 172 170 164 155 143 140 137 148 127 108 235 312 297 259 277 303 310 309
188 193 193 191 196 198 200 209 212 206 202 212 212 200 189 174 174 174 176 176 177 176 179 187 189 190 181 177 169 160 158 178 166 165 166 232 264 245 257 276 285 299 305
201 201 200 202 201 204 207 210 211 208 208 210 212 208 193 188 186 182 192 188 189 182 187 206 203 204 193 194 198 206 219 237 198 183 208 244 239 259 272 276 272 282 295
213 214 214 211 209 210 214 210 203 205 207 210 205 204 198 196 210 200 203 200 200 202 196 213 214 215 214 217 224 237 244 241 214 207 227 242 237 270 287 271 263 264 275
217 221 222 223 222 220 220 223 218 214 220 216 218 208 208 208 207 208 207 205 201 206 206 207 216 226 227 229 238 244 247 246 233 210 239 239 250 269 275 266 254 253 264
230 226 224 224 225 226 222 225 225 228 237 233 230 226 216 215 215 212 215 215 212 211 211 215 223 230 232 236 243 246 257 258 252 228 213 242 251 261 263 250 244 249 256
238 245 245 234 231 229 232 233 236 238 237 243 240 235 236 227 226 224 220 220 219 220 219 221 226 231 234 238 245 249 257 259 256 240 210 246 247 250 249 245 243 244 246
243 243 246 252 250 243 245 244 241 236 240 245 246 238 237 236 236 233 229 225 223 224 225 227 230 231 234 237 244 250 256 257 254 249 240 217 246 246 246 244 241 241 251
251 250 246 242 248 251 253 249 245 252 250 244 243 245 246 244 241 237 233 226 224 223 229 232 235 234 234 237 243 248 256 256 252 246 245 240 234 237 243 243 241 240 247
256 254 256 254 246 249 257 257 254 246 250 253 250 252 250 247 245 239 237 231 222 223 232 234 237 236 235 236 240 246 252 254 253 249 249 246 245 236 237 243 240 245 252
256 254 253 252 251 249 248 254 256 249 248 246 250 252 252 247 249 245 241 236 228 228 231 234 237 238 237 237 238 243 249 251 251 250 246 247 248 242 240 242 239 243 248
257 254 252 250 249 248 242 246 249 251 249 247 249 250 251 256 252 250 246 240 236 235 233 236 237 238 235 233 235 241 247 250 251 248 245 245 246 245 241 239 240 245 247
262 257 251 249 246 244 243 243 250 251 251 250 250 247 248 247 249 248 249 248 243 238 232 234 234 235 234 233 231 227 239 251 249 245 244 243 244 243 242 241 242 245 248
263 261 254 247 241 239 240 242 241 245 248 252 251 250 249 251 250 248 248 248 249 243 240 240 237 237 234 235 229 225 216 231 230 239 240 240 240 241 242 243 244 247 249
35 4 295 264 254 249 246 245 242 241 244 251 254 255 252 250 250 248 248 249 249 250 247 245 244 240 235 238 231 230 230 224 213 238 229 237 238 241 242 244 245 248 251
358 347 336 316 284 261 255 253 251 244 245 250 252 254 258 260 257 256 255 249 248 251 251 248 245 241 237 238 239 235 235 238 241 240 246 241 238 238 239 242 244 247 249
325 317 305 297 294 285 274 263 257 249 244 244 247 250 256 261 262 258 258 258 253 247 251 252 251 247 242 238 240 239 241 238 238 240 241 248 248 247 243 244 243 246 249
Wind_Speed_850mb
32 36 38 36 33 32 28 25 23 20 16 17 17 14 12 10 9 7 5 5 6 8 11 16 18 15 7 11 11 8 7 4 3 4 6 12 14 13 9 8 13 8 16
38 38 39 35 34 33 29 26 22 22 20 17 14 13 12 10 9 6 2 8 10 17 21 23 19 16 8 7 10 8 6 6 6 6 7 8 9 7 9 11 12 10 12
41 38 38 34 34 34 32 28 26 21 16 11 15 18 14 9 5 5 21 21 19 26 24 24 10 12 10 5 7 8 8 6 3 4 8 14 14 14 15 17 19 18 15
37 37 36 35 37 37 31 27 24 19 13 11 6 13 13 9 11 30 23 19 18 21 32 19 7 8 7 7 11 11 10 9 9 12 14 14 14 20 19 17 16 15 14
35 34 35 37 37 37 35 29 25 18 15 14 8 10 13 13 22 32 27 24 26 37 24 9 3 6 9 17 19 17 15 15 13 15 14 11 14 11 14 12 11 13 9
33 31 33 38 36 34 31 27 23 18 15 15 12 13 16 18 24 31 30 24 25 24 16 7 0 5 14 17 17 15 15 15 16 13 14 13 11 11 7 6 22 17 19
31 29 34 37 34 31 29 26 23 18 16 17 9 12 15 18 22 27 31 28 26 19 13 7 6 12 15 14 12 12 13 13 11 12 14 15 12 10 7 7 6 5 5
28 29 31 35 32 32 29 25 23 22 19 15 14 10 15 16 18 20 26 30 26 20 14 11 14 14 13 11 9 8 9 10 11 10 11 8 6 3 4 5 8 6 3
26 27 28 29 34 32 28 19 22 25 22 21 13 14 15 17 17 17 25 28 25 19 17 16 15 12 9 6 6 7 8 8 8 7 8 4 4 6 8 9 8 8 8
26 27 27 26 28 27 27 26 24 24 24 22 14 19 20 19 19 20 21 22 23 22 20 17 14 10 7 6 7 7 7 6 5 4 6 7 2 5 7 8 7 8 10
26 27 28 27 27 26 24 24 25 28 28 23 20 23 22 19 19 19 22 22 23 22 21 17 13 9 7 6 7 7 5 5 5 5 5 6 5 11 13 13 10 11 11
30 31 29 29 27 28 29 25 24 26 31 28 25 27 24 21 19 20 22 22 23 22 21 18 14 11 8 8 7 5 5 6 5 6 10 9 9 16 15 14 12 11 8
26 30 33 31 30 33 31 27 25 26 27 29 29 29 28 25 24 24 21 25 24 24 19 23 18 15 14 12 11 9 10 10 7 7 14 12 12 17 11 10 8 8 6
31 33 33 33 33 34 33 33 28 30 29 29 32 34 32 30 28 26 25 24 25 24 24 23 20 22 19 15 13 13 13 13 10 8 17 14 18 18 14 10 9 8 6
32 35 36 35 36 39 40 37 35 34 35 35 37 38 36 35 32 30 29 29 28 28 28 27 28 26 23 20 18 17 15 15 15 12 13 16 20 19 17 13 11 9 8
31 33 34 34 37 37 44 45 43 38 35 37 41 43 45 41 39 37 34 33 33 33 31 32 32 31 28 25 23 20 19 19 18 16 13 15 21 20 18 15 13 12 11
29 30 36 37 38 42 42 44 47 43 42 38 44 42 45 47 46 44 40 37 37 36 37 38 39 37 35 31 28 25 23 23 22 21 20 16 19 22 21 19 18 17 15
38 37 35 38 44 48 48 47 46 48 46 46 46 48 47 49 52 48 45 40 38 38 44 45 45 41 39 36 33 30 28 27 26 25 25 25 24 20 25 24 22 20 17
52 50 52 51 47 47 55 58 56 53 53 53 54 52 52 53 55 53 50 45 42 42 49 50 50 47 45 41 37 36 33 32 30 30 29 30 31 29 27 27 27 23 20
47 52 53 55 52 54 49 58 64 63 63 61 61 60 60 58 58 55 56 52 47 50 53 58 56 52 49 45 43 40 38 37 35 35 35 35 36 35 34 33 29 29 25
50 51 52 51 54 52 48 61 68 74 72 71 74 74 70 66 61 60 60 60 58 61 59 63 59 60 57 55 47 45 44 42 41 42 41 40 40 40 39 38 35 34 31
43 50 55 57 56 57 57 52 69 73 79 84 81 78 77 76 73 72 69 66 65 66 64 65 70 70 64 65 57 29 21 37 51 49 49 47 46 45 45 43 42 40 39
15 28 42 55 63 66 65 61 53 54 63 80 84 82 78 76 83 82 80 74 74 71 72 74 76 77 75 71 70 38 20 26 26 44 55 54 52 52 50 50 49 48 46
12 7 9 21 37 54 64 68 64 60 64 71 81 87 88 88 87 84 90 86 81 77 77 79 80 81 80 80 76 76 68 31 19 18 38 49 54 55 55 57 55 54 50
13 12 11 12 14 24 35 52 67 61 57 54 53 59 69 80 89 88 84 86 90 89 82 79 83 87 88 88 84 81 80 80 65 41 20 35 51 58 60 61 60 58 56
15 16 17 17 17 20 22 29 42 58 59 53 52 55 60 66 71 75 79 82 82 91 91 85 84 85 91 91 93 88 87 82 81 74 53 51 45 49 60 62 64 62 61
Wind_Direction_850mb
172 176 160 162 174 173 168 171 170 174 178 196 198 204 218 232 261 276 282 244 201 176 153 138 123 156 172 164 162 190 183 206 302 328 334 351 334 337 0 39 74 80 146
169 168 167 167 169 165 162 170 174 181 181 194 195 210 222 242 269 292 246 154 151 152 149 140 125 85 82 195 194 194 213 244 269 296 343 355 3 43 57 67 84 95 118
162 165 169 170 166 161 167 177 176 184 196 229 226 220 214 219 231 147 137 135 122 137 149 146 113 69 56 103 183 199 215 238 280 37 57 75 66 72 69 75 80 83 103
157 165 167 168 165 162 166 179 179 183 190 169 162 152 174 168 147 138 125 128 135 140 148 144 108 46 31 121 127 132 139 127 113 98 81 85 75 78 74 69 68 72 79
160 164 176 170 172 171 176 185 186 188 181 174 200 140 146 141 146 145 143 143 139 148 152 162 73 30 94 113 116 115 116 112 106 89 87 87 108 74 74 68 70 56 72
164 168 182 178 175 176 171 185 186 189 186 195 195 132 135 141 150 163 160 155 160 160 171 186 323 115 121 118 118 110 111 109 89 89 88 88 71 77 66 80 95 75 65
166 171 180 183 186 179 173 180 191 192 191 186 196 132 139 144 153 171 177 173 169 176 187 194 163 135 124 118 117 115 111 113 112 99 90 89 98 91 124 127 158 175 108
173 172 178 186 180 181 185 181 192 201 195 209 190 153 150 142 148 149 162 169 174 184 191 180 152 137 128 128 135 138 130 122 109 112 101 113 112 178 212 242 252 243 197
179 184 178 187 186 189 192 203 211 210 205 205 190 176 162 150 146 153 160 170 178 184 177 166 155 148 143 143 144 147 143 133 126 131 109 113 174 330 289 284 275 292 286
184 190 186 187 193 199 204 206 211 217 201 187 207 188 173 166 161 158 160 170 171 172 172 174 171 172 170 164 155 143 140 137 148 127 108 235 312 297 259 277 303 310 309
188 193 193 191 196 198 200 209 212 206 202 212 212 200 189 174 174 174 176 176 177 176 179 187 189 190 181 177 169 160 158 178 166 165 166 232 264 245 257 276 285 299 305
201 201 200 202 201 204 207 210 211 208 208 210 212 208 193 188 186 182 192 188 189 182 187 206 203 204 193 194 198 206 219 237 198 183 208 244 239 259 272 276 272 282 295
213 214 214 211 209 210 214 210 203 205 207 210 205 204 198 196 210 200 203 200 200 202 196 213 214 215 214 217 224 237 244 241 214 207 227 242 237 270 287 271 263 264 275
217 221 222 223 222 220 220 223 218 214 220 216 218 208 208 208 207 208 207 205 201 206 206 207 216 226 227 229 238 244 247 246 233 210 239 239 250 269 275 266 254 253 264
230 226 224 224 225 226 222 225 225 228 237 233 230 226 216 215 215 212 215 215 212 211 211 215 223 230 232 236 243 246 257 258 252 228 213 242 251 261 263 250 244 249 256
238 245 245 234 231 229 232 233 236 238 237 243 240 235 236 227 226 224 220 220 219 220 219 221 226 231 234 238 245 249 257 259 256 240 210 246 247 250 249 245 243 244 246
243 243 246 252 250 243 245 244 241 236 240 245 246 238 237 236 236 233 229 225 223 224 225 227 230 231 234 237 244 250 256 257 254 249 240 217 246 246 246 244 241 241 251
251 250 246 242 248 251 253 249 245 252 250 244 243 245 246 244 241 237 233 226 224 223 229 232 235 234 234 237 243 248 256 256 252 246 245 240 234 237 243 243 241 240 247
256 254 256 254 246 249 257 257 254 246 250 253 250 252 250 247 245 239 237 231 222 223 232 234 237 236 235 236 240 246 252 254 253 249 249 246 245 236 237 243 240 245 252
256 254 253 252 251 249 248 254 256 249 248 246 250 252 252 247 249 245 241 236 228 228 231 234 237 238 237 237 238 243 249 251 251 250 246 247 248 242 240 242 239 243 248
257 254 252 250 249 248 242 246 249 251 249 247 249 250 251 256 252 250 246 240 236 235 233 236 237 238 235 233 235 241 247 250 251 248 245 245 246 245 241 239 240 245 247
262 257 251 249 246 244 243 243 250 251 251 250 250 247 248 247 249 248 249 248 243 238 232 234 234 235 234 233 231 227 239 251 249 245 244 243 244 243 242 241 242 245 248
263 261 254 247 241 239 240 242 241 245 248 252 251 250 249 251 250 248 248 248 249 243 240 240 237 237 234 235 229 225 216 231 230 239 240 240 240 241 242 243 244 247 249
35 4 295 264 254 249 246 245 242 241 244 251 254 255 252 250 250 248 248 249 249 250 247 245 244 240 235 238 231 230 230 224 213 238 229 237 238 241 242 244 245 248 251
358 347 336 316 284 261 255 253 251 244 245 250 252 254 258 260 257 256 255 249 248 251 251 248 245 241 237 238 239 235 235 238 241 240 246 241 238 238 239 242 244 247 249
325 317 305 297 294 285 274 263 257 249 244 244 247 250 256 261 262 258 258 258 253 247 251 252 251 247 242 238 240 239 241 238 238 240 241 248 248 247 243 244 243 246 249